Location: Dodgeville, WI 53533, USA
(43.0344°N, 90.0900°W)
Time: 02:46:52
(UTC-06:00)

Envisat - Visible Passes

Search period start: 21 January 2021 00:00
Search period end: 31 January 2021 00:00
Orbit: 764 x 766 km, 98.1° (Epoch: 20 January)

Date Brightness Start Highest point End Pass type
(mag) Time Alt. Az. Time Alt. Az. Time Alt. Az.
21 Jan 6.0 04:28:40 10° ENE 04:31:18 14° E 04:33:56 10° ESE visible
21 Jan 2.9 06:05:46 10° N 06:10:50 71° WNW 06:15:53 10° SSW visible
21 Jan 4.2 17:21:17 10° S 17:26:11 49° W 17:31:08 10° NNW visible
22 Jan 3.8 05:29:01 10° NNE 05:34:00 53° E 05:38:57 10° S visible
22 Jan 6.2 18:26:38 10° WSW 18:28:55 13° W 18:31:15 10° WNW visible
23 Jan 5.2 04:52:51 10° NE 04:56:59 24° E 05:01:04 10° SSE visible
23 Jan 3.4 06:31:23 10° N 06:36:08 41° WNW 06:40:52 10° SW visible
23 Jan 5.3 17:47:23 10° SSW 17:51:44 29° W 17:56:07 10° NW visible
24 Jan 6.2 04:18:32 10° ENE 04:19:44 11° E 04:20:56 10° E visible
24 Jan 3.0 05:54:20 10° NNE 05:59:26 89° WNW 06:04:31 10° SSW visible
25 Jan 4.3 05:17:43 10° NNE 05:22:33 42° E 05:27:20 10° SSE visible
25 Jan 6.0 18:14:11 10° SW 18:17:23 17° W 18:20:36 10° NW visible
26 Jan 5.6 04:41:49 10° NE 04:45:28 19° E 04:49:04 10° SE visible
26 Jan 3.1 06:19:51 10° N 06:24:47 52° WNW 06:29:41 10° SSW visible
26 Jan 4.9 17:35:37 10° SSW 17:40:15 36° W 17:44:56 10° NNW visible
27 Jan 3.2 05:42:55 10° NNE 05:48:01 73° ESE 05:53:05 10° S visible
28 Jan 4.7 05:06:30 10° NNE 05:11:05 33° E 05:15:38 10° SSE visible
28 Jan 3.7 06:45:35 10° N 06:50:01 31° WNW 06:54:26 10° SW visible
28 Jan 5.9 18:02:03 10° SW 18:05:51 21° W 18:09:41 10° NW visible
29 Jan 5.9 04:30:59 10° NE 04:33:55 15° E 04:36:52 10° SE visible
29 Jan 2.9 06:08:21 10° N 06:13:24 66° WNW 06:18:25 10° SSW visible
30 Jan 3.6 05:31:34 10° NNE 05:36:36 58° E 05:41:35 10° S visible
30 Jan 6.3 18:29:42 10° WSW 18:31:34 12° W 18:33:25 10° WNW visible
